This is the latest recevied weather packets stored in our database for station/object G4WLC-1. If no packets are shown the sender has not sent any weather packets the latest 10 day(s).
| Time | Temp. | Humidity | Pressure | Rain* | Wind** | Luminosity | Snow |
|---|---|---|---|---|---|---|---|
| 1787846543 | 21.67° C | 83% | 1007 hPa | 0 mm | - | - | - |
| 1787846243 | 21.11° C | 84% | 1007.1 hPa | 0 mm | - | - | - |
| 1787845943 | 21.11° C | 85% | 1007 hPa | 0 mm | - | - | - |
| 1787845643 | 21.11° C | 86% | 1007.1 hPa | 0 mm | - | - | - |
| 1787845343 | 20.56° C | 86% | 1007 hPa | 0 mm | - | - | - |
| 1787845043 | 20.56° C | 92% | 1007 hPa | 0 mm | - | - | - |
| 1787844743 | 20° C | 92% | 1007 hPa | 0 mm | - | - | - |
| 1787844443 | 19.44° C | 93% | 1007.1 hPa | 0 mm | - | - | - |
| 1787844143 | 18.89° C | 92% | 1007.1 hPa | 0 mm | - | - | - |
| 1787843843 | 18.33° C | 92% | 1007.1 hPa | 0 mm | - | - | - |
| 1787843543 | 18.33° C | 92% | 1007.2 hPa | 0 mm | - | - | - |
| 1787843243 | 18.89° C | 93% | 1007 hPa | 0 mm | - | - | - |
| 1787842943 | 18.33° C | 93% | 1006.9 hPa | 0 mm | - | - | - |
| 1787842643 | 18.33° C | 93% | 1007.1 hPa | 0.76 mm | - | - | - |
| 1787842343 | 17.78° C | 93% | 1006.9 hPa | 1.27 mm | - | - | - |
| 1787842043 | 17.78° C | 94% | 1006.7 hPa | 4.32 mm | - | - | - |
| 1787841743 | 17.22° C | 93% | 1006.6 hPa | 7.62 mm | - | - | - |
| 1787841443 | 16.67° C | 93% | 1006.7 hPa | 13.72 mm | - | - | - |
| 1787841148 | 16.67° C | 93% | 1006.9 hPa | 26.92 mm | - | - | - |
| 1787840843 | 16.67° C | 93% | 1007 hPa | 29.46 mm | - | - | - |
| 1787840543 | 16.67° C | 94% | 1006.7 hPa | 30.23 mm | - | - | - |
| 1787840243 | 16.67° C | 93% | 1006.7 hPa | 30.23 mm | - | - | - |
| 1787839943 | 16.11° C | 93% | 1006.8 hPa | 30.23 mm | - | - | - |
| 1787839643 | 16.11° C | 93% | 1006.9 hPa | 30.23 mm | - | - | - |
| 1787839343 | 15.56° C | 92% | 1006.9 hPa | 30.23 mm | - | - | - |
* Rain latest hour (hover to see other rain measurements)
** Current wind speed in m/s (hover to see current wind gust speed)